Regional Weather Roundup
Issued by NWS Kansas City/Pleasant Hill, MO

Home | Current Version | Previous Version | Text Only | Print | Product List | Glossary On
Versions: 1 2 3 4 5 6 7 8 9 10 11 12 13 14 15 16 17 18 19 20 21 22 23 24 25 26 27
000
ASUS43 KEAX 161210
RWREAX

WEATHER ROUNDUP FOR EASTERN KANSAS AND NORTHWEST MISSOURI
NATIONAL WEATHER SERVICE KANSAS CITY/PLEASANT HILL MO
600 AM CST SAT DEC 16 2017

KSZ040-057-103>105-MOZ028-029-037-043-161300-
...KANSAS CITY METROPOLITAN AREA...

CITY           SKY/WX    TMP DP  RH WIND       PRES   REMARKS
K.C. INTL      CLEAR     36  24  62 SW14      29.85S WCI  27
6HR MIN TEMP:  35; 6HR MAX TEMP:  40;

K.C. DOWNTOWN  CLEAR     42  24  49 SW9       29.87S
6HR MIN TEMP:  41; 6HR MAX TEMP:  45;

LEES SUMMIT    CLEAR     39  24  55 SW17      29.87F WCI  30
6HR MIN TEMP:  39; 6HR MAX TEMP:  40;

OLATHE - IXD   CLEAR     37  24  59 S13       29.88F WCI  29
6HR MIN TEMP:  35; 6HR MAX TEMP:  40;

OLATHE - OJC   CLEAR     36  24  62 S10       29.88S WCI  28
6HR MIN TEMP:  36; 6HR MAX TEMP:  38;

LAWRENCE       CLEAR     36  25  64 SE5       29.87S WCI  32

$$

MOZ001>008-011>017-020>025-030>033-038>040-044>046-053-054-161300-
...NORTHERN AND CENTRAL MISSOURI...

CITY           SKY/WX    TMP DP  RH WIND       PRES   REMARKS
ST. JOSEPH     NOT AVBL
MOSBY          SUNNY     37  25  60 S5        29.87S WCI  34
WARRENSBURG    CLEAR     37  25  60 S9        29.91R WCI  31
WHITEMAN AFB   CLEAR     38  24  56 SW16G25   29.87R WCI  29
6HR MIN TEMP:  37; 6HR MAX TEMP:  38;

CLINTON        CLEAR     36  25  64 S7        29.94S WCI  30
SEDALIA        CLEAR     41  26  55 SW20G26   29.92S WCI  32
6HR MIN TEMP:  40; 6HR MAX TEMP:  41;

WARSAW         NOT AVBL
CHILLICOTHE      N/A     35  23  61 S9        29.85S WCI  28
6HR MIN TEMP:  33; 6HR MAX TEMP:  36;

KIRKSVILLE     CLEAR     36  27  69 SW14      29.84S WCI  27
6HR MIN TEMP:  36; 6HR MAX TEMP:  39;


$$

MOZ041-047>049-056>058-063>065-088>090-097-161300-
...EASTERN AND SOUTHERN MISSOURI...

CITY           SKY/WX    TMP DP  RH WIND       PRES   REMARKS
ST. LOUIS INTL CLEAR     39  25  57 SW16      29.97F WCI  30
6HR MIN TEMP:  36; 6HR MAX TEMP:  39;

SPIRIT OF STL  CLEAR     40  25  55 SW9       29.97F WCI  34
COLUMBIA       CLEAR     32  24  72 S9        29.93S WCI  24
JEFFERSON CITY CLEAR     37  24  59 SE3       29.96F
ROLLA          CLEAR     33  25  72 S15       29.98F WCI  23
OSAGE BEACH    CLEAR     38  24  57 SW10      29.98F WCI  31
SPRINGFIELD    CLOUDY    33  25  72 S12       30.00S WCI  24
BRANSON        CLOUDY    37  21  52 CALM      30.06R
JOPLIN         CLEAR     39  25  57 S16G25    29.99S WCI  30
WEST PLAINS    CLOUDY    31  25  78 SW6       30.07S WCI  25

$$

IAZ060-094-KSZ022-034>040-054-083-096-NEZ052-066-093-161300-
...KANSAS...SOUTHEAST NEBRASKA AND IOWA...

CITY           SKY/WX    TMP DP  RH WIND       PRES   REMARKS
TOPEKA         CLOUDY   N/A N/A N/A SW7       29.85S
MANHATTAN      CLOUDY    37  24  59 SW9       29.81F WCI  30
EMPORIA        CLEAR     33  23  66 S8        29.86F WCI  26
CHANUTE        CLEAR     37  23  56 S16       29.93F WCI  28
WICHITA        CLOUDY    31  24  75 S10       29.87S WCI  22
OMAHA          CLOUDY    30  21  69 SE9       29.76R WCI  22
LINCOLN        PTCLDY    32  20  61 S3        29.77R
FALLS CITY     CLEAR     35  24  64 S5        29.78S WCI  31
LAMONI         CLOUDY    32  24  72 S9        29.78R WCI  24
DES MOINES     CLEAR     36  24  62 SW7       29.75R WCI  30

$$





USA.gov is the U.S. government's official web portal to all federal, state and local government web resources and services.